{"data":{"norad_id":81824,"intl_designator":"","name":"UNKNOWN","alt_names":[],"object_type":"UNKNOWN","status":"UNKNOWN","operator":null,"country":null,"launch_date":null,"launch_site_code":null,"launch_vehicle":null,"mission":null,"orbit_class":"UNKNOWN","rcs_meters":null,"size_class":null,"mass_kg":null,"dimensions":null,"purposes":[],"wikipedia_slug":null,"has_3d_model":false,"image_url":null,"decayed_at":null,"tle_current":{"epoch":"2026-09-18T12:09:05.364576Z","epoch_age_seconds":186794,"freshness":"STALE","line1":"1 81824U          26261.50631209  .00002735  00000+0  92626-3 0  9990","line2":"2 81824  65.8414 291.6652 0043263 203.2367 156.6773 14.37843420664787","mean_motion":14.3784342,"eccentricity":0.0043263,"inclination_deg":65.8414,"raan_deg":291.6652,"arg_perigee_deg":203.2367,"mean_anomaly_deg":156.6773,"bstar":0.00092626,"rev_number":66478,"period_min":100.14998712447,"perigee_km":734.72660506859,"apogee_km":796.53878673937,"semimajor_km":7143.769695904,"source":"CELESTRAK","updated_at":"2026-09-20T09:00:32.396044Z"}}}